Saranac Lake, NY

6:24 PM EDT on September 23, 2017 (GMT -0400)
Adirondack Regional

Weather History for KSLK - August, 2013

Change the Weather History Date:

Thursday, August 15, 2013

  Actual Average Record
Temperature  
Mean Temperature 53 °F 62 °F  
Max Temperature 67 °F 74 °F 86 °F (1959)
Min Temperature 39 °F 49 °F 37 °F (2001)
Degree Days  
Heating Degree Days 12 4  
Month to date heating degree days 60  
Since 1 June heating degree days 338  
Since 1 July heating degree days 154  
Cooling Degree Days 0 1  
Month to date cooling degree days 9 15  
Year to date cooling degree days 155 90  
Since 1 June cooling degree days 145 87  
Growing Degree Days 2 (Base 50)    
Moisture  
Dew Point 45 °F    
Average Humidity 74    
Maximum Humidity 100    
Minimum Humidity 48    
Precipitation  
Precipitation 0.00 in 0.13 in 1.20 in (1980)
Month to date precipitation 2.55 1.93  
Year to date precipitation 28.27 22.32  
Sea Level Pressure  
Sea Level Pressure 30.05 in    
Wind  
Wind Speed 7 mph (SW)    
Max Wind Speed 15 mph    
Max Gust Speed 21 mph    
Visibility 10 miles    
Events      
T = Trace of Precipitation, MM = Missing Value Source: NWS Daily Summary

Daily Weather History Graph

Daily Weather History Graph

Search for Another Location

Airport or City:

Trip Planner

Search our weather history database for the weather conditions in past years. The results will help you decide how hot, cold, wet, or windy it might be!

Date:

Astronomy

Aug. 15, 2013 Rise Set
Actual Time 6:00 AM EDT 8:01 PM EDT
Civil Twilight 5:28 AM EDT 8:32 PM EDT
Nautical Twilight 4:49 AM EDT 9:11 PM EDT
Astronomical Twilight 4:07 AM EDT 9:53 PM EDT
Moon 3:20 PM EDT (8/15) 12:04 AM EDT (8/15)
Length of Visible Light 15h 04m
Length of Day
14h 01m
Waxing Gibbous, 64% of the Moon is Illuminated
Aug 15
Waxing Gibbous
Aug 20
Full
Aug 28
Last Quarter
Sep 5
New
Sep 12
First Quarter

Hourly Weather History & Observations

Time (EDT) Temp. Windchill Dew Point Humidity Pressure Visibility Wind Dir Wind Speed Gust Speed Precip Events Conditions
12:51 AM 42.1 °F - 41.0 °F 96% 30.02 in 10.0 mi Calm Calm - N/A   Clear
1:51 AM 42.1 °F - 41.0 °F 96% 30.02 in 3.0 mi Calm Calm - N/A   Clear
2:51 AM 42.1 °F - 39.9 °F 92% 30.03 in 10.0 mi Calm Calm - N/A   Clear
3:51 AM 39.0 °F - 37.9 °F 96% 30.03 in 10.0 mi Calm Calm - N/A   Partly Cloudy
4:51 AM 41.0 °F - 39.9 °F 96% 30.03 in 10.0 mi Calm Calm - N/A   Clear
5:51 AM 42.1 °F - 42.1 °F 100% 30.04 in 10.0 mi Calm Calm - N/A   Clear
6:51 AM 43.0 °F 41.3 °F 42.1 °F 97% 30.06 in 10.0 mi SSW 3.5 mph - N/A   Clear
7:31 AM 51.8 °F - 48.2 °F 88% 30.05 in 10.0 mi SSW 8.1 mph - N/A   Partly Cloudy
7:51 AM 52.0 °F - 50.0 °F 93% 30.06 in 10.0 mi SW 11.5 mph - N/A   Scattered Clouds
8:51 AM 55.0 °F - 51.1 °F 86% 30.07 in 10.0 mi SW 6.9 mph - N/A   Partly Cloudy
9:51 AM 57.9 °F - 50.0 °F 75% 30.07 in 10.0 mi SW 9.2 mph - N/A   Clear
10:51 AM 62.1 °F - 48.0 °F 60% 30.07 in 10.0 mi SW 10.4 mph 20.7 mph N/A   Mostly Cloudy
11:51 AM 62.1 °F - 46.0 °F 56% 30.07 in 10.0 mi WSW 10.4 mph 18.4 mph N/A   Mostly Cloudy
12:51 PM 63.0 °F - 46.9 °F 56% 30.07 in 10.0 mi WSW 11.5 mph 19.6 mph N/A   Mostly Cloudy
1:51 PM 64.0 °F - 46.9 °F 54% 30.07 in 10.0 mi SW 11.5 mph 18.4 mph N/A   Scattered Clouds
2:51 PM 64.0 °F - 46.0 °F 52% 30.06 in 10.0 mi WSW 9.2 mph - N/A   Mostly Cloudy
3:51 PM 66.9 °F - 46.9 °F 49% 30.06 in 10.0 mi WSW 15.0 mph 20.7 mph N/A   Scattered Clouds
4:51 PM 63.0 °F - 46.0 °F 54% 30.06 in 10.0 mi WSW 12.7 mph - N/A   Mostly Cloudy
5:51 PM 64.9 °F - 46.9 °F 52% 30.05 in 10.0 mi Variable 5.8 mph 16.1 mph N/A   Scattered Clouds
6:51 PM 63.0 °F - 48.0 °F 58% 30.06 in 10.0 mi WSW 8.1 mph - N/A   Clear
7:51 PM 60.1 °F - 48.0 °F 64% 30.06 in 10.0 mi WSW 6.9 mph - N/A   Clear